www.pogodaiklimat.ru

Погода и климат >> Архив погоды >> Мальдивы >> Ган


ПОГОДА в Гане

  • Прогноз погоды в Гане
  • Монитор погоды в Гане

АРХИВ ПОГОДЫ в Гане

Время (UTC), дата Ветер
(напр.,м/с)
 
Видим.   Явления Облачность Т
(С)
Тd
(С)
f
(%)
Тe
(С)
Тes
(С)
Комфортность P
(гПа)
Po
(гПа)
Тmin
(С)
Tmax
(С)
R
(мм)
R24
(мм)
S
(см)
21 16.09 нст 1 10 км 9/3 500 м
[Cu med, cong Ac cuf Cs]
+26.3 +25.0 93 +38 +38 очень
душно
1010.0 1009.8
00 17.09 В 2 10 км 8/3 540 м
[Cu med, cong Ac trans Ci sp]
+25.8 +24.6 93 +36 +36 очень
душно
1009.8 1009.6 0.0
03 17.09 ЮВ 2 10 км 6/3 540 м
[Cu med, cong Ci fib]
+29.1 +24.7 77 +41 +44 опасность
перегрева
1011.4 1011.2 +25.2
06 17.09 ЮВ 4 15 км 4/3 540 м
[Cu med, cong Ci fib]
+31.2 +25.6 72 +46 +55 опасность
перегрева
1011.4 1011.2
09 17.09 В 2 15 км 4/3 540 м
[Cu med, cong Ci fib]
+31.0 +25.1 71 +45 +56 опасность
перегрева
1008.9 1008.7
12 17.09 В 3 15 км 6/3 540 м
[Cu med, cong Ci fib]
+29.8 +24.4 73 +42 +43 опасность
перегрева
1008.8 1008.6 +32.1
15 17.09 Ю 1 12 км 8/3 540 м
[Cu med, cong Ci fib]
+28.0 +25.4 86 +41 +41 опасность
перегрева
1011.0 1010.8
18 17.09 Ю 2 12 км 8/3 540 м
[Cu med, cong Ci fib]
+27.0 +25.0 89 +39 +39 очень
душно
1011.6 1011.4
21 17.09 Ю 1 12 км 6/4 540 м
[Cb cap Ac trans Ci sp]
+27.0 +25.3 90 +39 +39 очень
душно
1009.4 1009.2
00 18.09 нст 1 10 км {ливн. осадки} 9/5 500 м
[Cb cap Ac cuf Ci sp]
+25.7 +24.4 93 +36 +36 очень
душно
1010.2 1010.0 1
03 18.09 Ю 1 12 км 6/4 540 м
[Cb cap Ac trans Ci sp]
+29.4 +25.3 79 +43 +46 опасность
перегрева
1011.7 1011.5 +25.0
06 18.09 Ю 4 12 км 9/4 540 м
[Cb cap Ci sp]
+30.2 +25.5 76 +44 +52 опасность
перегрева
1011.6 1011.4
09 18.09 ЮВ 3 10 км 9/4 540 м
[Cb cap Ac cuf Ci sp]
+30.7 +25.3 73 +45 +50 опасность
перегрева
1009.6 1009.4
12 18.09 Ю 5 15 км 4/3 540 м
[Cu med, cong Ci fib]
+30.0 +24.9 74 +43 +44 опасность
перегрева
1009.9 1009.7 +31.3
15 18.09 Ю 2 10 км 5/3 540 м
[Cu med, cong Ci fib]
+27.2 +23.7 81 +37 +37 очень
душно
1011.9 1011.7
18 18.09 Ю 6 10 км 6/4 540 м
[Cu med, cong Ci fib]
+27.1 +24.8 87 +39 +39 очень
душно
1012.4 1012.2
21 18.09 Ю 3 10 км 8/4 500 м
[Cb cap Ac trans Ci fib]
+26.1 +24.4 90 +36 +36 очень
душно
1011.0 1010.8
00 19.09 ЮЗ 5 10 км 8/3 540 м
[Cu med, cong Ac trans Ci fib]
+26.4 +23.8 86 +36 +36 очень
душно
1010.5 1010.3
03 19.09 З 2 12 км 5/3 540 м
[Cu med, cong Ac trans Ci fib]
+29.0 +25.6 82 +43 +46 опасность
перегрева
1011.9 1011.7 +25.6
06 19.09 З 6 15 км 4/1 540 м
[Cu med, cong Ci fib]
+31.1 +25.2 71 +45 +52 опасность
перегрева
1012.1 1011.9
09 19.09 ЮЗ 3 15 км 5/4 540 м
[Cu med, cong Ci fib]
+31.5 +25.4 70 +46 +55 опасность
перегрева
1009.8 1009.6
12 19.09 З 6 15 км 5/4 540 м
[Cu med, cong Ac cuf Ci fib]
+29.6 +24.3 73 +41 +42 опасность
перегрева
1009.2 1009.0 +31.9
15 19.09 ЮЗ 3 12 км {ливн. осадки} 6/3 500 м
[Cu med, cong Ac trans Ci fib]
+28.3 +23.8 77 +39 +39 очень
душно
1011.1 1010.9
18 19.09 ЮЗ 6 9000 м в посл. час ливневой дождь 9/5 500 м
[Cb cap Ac cuf Cs]
+26.5 +24.6 89 +37 +37 очень
душно
1012.4 1012.2 0.4
21 19.09 З 2 8000 м слаб. дождь 9/5 480 м
[Cb cap Ac cuf Cs]
+25.2 +24.6 96 +35 +35 очень
душно
1010.6 1010.4
00 20.09 Ю 3 7000 м слаб. дождь 10/5 500 м
[Cb cap As op]
+25.0 +24.4 96 +35 +35 очень
душно
1010.5 1010.3 15
03 20.09 З 4 6000 м слаб. дождь 10/5 500 м
[Cb cap As op]
+24.6 +24.2 98 +34 +34 очень
душно
1012.7 1012.5 +24.0
06 20.09 З 7 7000 м слаб. дождь 10/4 480 м
[Cb cap As op]
+25.8 +24.9 95 +37 +37 очень
душно
1012.4 1012.2 37
09 20.09 З 5 3000 м ливневой дождь 10/5 480 м
[Cb cap As op]
+24.6 +24.3 98 +34 +35 очень
душно
1010.3 1010.1
12 20.09 З 9 6000 м слаб. дождь 10/5 480 м
[Cb cap As op]
+25.5 +24.2 93 +35 +35 очень
душно
1009.9 1009.7 +30.1 67
15 20.09 З 3 7000 м осадки на расстоянии 10/5 480 м
[Cb cap As op]
+25.6 +24.2 92 +35 +35 очень
душно
1011.5 1011.3
18 20.09 З 6 9000 м в посл. час дождь 10/5 480 м
[Cb cap As op]
+26.4 +24.4 89 +37 +37 очень
душно
1012.0 1011.8 2
21 20.09 СЗ 2 9000 м в посл. час дождь {ливн. осадки} 10/5 480 м
[Cb cap As op]
+26.9 +24.9 89 +39 +39 очень
душно
1009.0 1008.8
00 21.09 З 5 10 км {ливн. осадки, дождь} 9/4 500 м
[Cb cap Ac As]
+27.6 +23.8 80 +38 +38 очень
душно
1008.9 1008.7 3
03 21.09 З 3 6000 м слаб. дождь 10/5 450 м
[Cb cap As op]
+25.4 +24.8 96 +36 +36 очень
душно
1011.2 1011.0 +24.0
06 21.09 З 5 10 км {дождь} 9/4 500 м
[Cu med, cong Ac As]
+29.4 +24.2 74 +41 +44 опасность
перегрева
1010.9 1010.7 22
09 21.09 З 6 10 км 9/5 500 м
[Cb cap Ac As]
+28.4 +24.7 80 +40 +42 очень
душно
1009.0 1008.8
12 21.09 СЗ 7 10 км {ливн. осадки} 9/5 500 м
[Cb cap Ac As]
+25.4 +22.4 83 +33 +33 очень
душно
1009.7 1009.5 +30.3 22
15 21.09 ЮЗ 1 3000 м ливневой дождь 10/6 450 м
[Cb cap]
+24.8 +23.5 92 +33 +33 очень
душно
1012.6 1012.4
18 21.09 З 7 9000 м в посл. час дождь {ливн. осадки} 10/5 480 м
[Cb cap As op]
+26.4 +23.5 84 +36 +36 очень
душно
1011.9 1011.7 29
21 21.09 З 3 10 км 9/4 500 м
[Cu med, cong Ac As]
+27.2 +24.3 84 +38 +38 очень
душно
1009.3 1009.1
00 22.09 З 7 10 км 9/4 500 м
[Cu med, cong Ac As]
+27.2 +23.6 81 +37 +37 очень
душно
1009.0 1008.8 29
03 22.09 З 3 10 км 9/3 500 м
[Cu med, cong Ac und]
+28.9 +24.2 76 +40 +42 очень
душно
1011.3 1011.1 +24.2
06 22.09 З 7 12 км 9/4 500 м
[Cu med, cong Ac trans Ci sp]
+31.0 +25.2 71 +45 +47 опасность
перегрева
1011.7 1011.5
09 22.09 З 4 10 км 8/5 500 м
[Cb cap Ac trans Ci sp]
+29.0 +24.9 79 +42 +46 опасность
перегрева
1009.2 1009.0
12 22.09 З 7 10 км 9/4 500 м
[Cu med, cong Ac trans Ci sp]
+29.6 +24.4 74 +42 +42 опасность
перегрева
1009.5 1009.3 +31.4
15 22.09 З 3 10 км 9/4 500 м
[Cu med, cong Ac As]
+29.0 +25.0 79 +42 +42 опасность
перегрева
1011.8 1011.6
18 22.09 СЗ 5 6000 м слаб. ливневой дождь 9/5 500 м
[Cb cap Ac As]
+25.0 +23.5 91 +34 +34 очень
душно
1012.1 1011.9 4
21 22.09 З 3 6000 м слаб. ливневой дождь 9/5 480 м
[Cb cap Ac As]
+25.6 +23.9 90 +35 +35 очень
душно
1010.5 1010.3
00 23.09 З 4 9000 м в посл. час ливневой дождь 9/5 500 м
[Cb cap Ac As]
+25.6 +23.9 90 +35 +35 очень
душно
1010.4 1010.2 9
03 23.09 С 1 8000 м слаб. дождь 10/4 500 м
[Cb cap As op]
+26.4 +25.0 92 +38 +39 очень
душно
1012.5 1012.3 +24.8
06 23.09 З 4 9000 м в посл. час дождь {ливн. осадки} 10/4 500 м
[Cu med, cong As trans]
+27.6 +25.5 88 +40 +44 очень
душно
1012.4 1012.2 16
09 23.09 ЮЗ 3 9000 м слаб. дождь 10/4 500 м
[Cu med, cong As op]
+28.2 +23.6 76 +38 +40 очень
душно
1010.2 1010.0
12 23.09 ЮЗ 3 9000 м слаб. дождь 10/4 500 м
[Cb cap As op]
+28.0 +25.2 85 +41 +41 опасность
перегрева
1010.1 1009.9 +30.0 16
15 23.09 З 1 9000 м слаб. дождь 10/4 500 м
[Cb cap As op]
+27.4 +24.5 84 +39 +39 очень
душно
1012.3 1012.1

 

Местоположение метеостанции Ган (Мальдивы): широта -0.68 долгота 73.15 высота над уровнем моря 2 м.

В архиве по умолчанию представлена погода в Гане за последнюю неделю. Архивные данные за месяц целиком и за предыдущие месяцы, начиная с января 2011 года, Вы можете получить, выбрав интересующий диапазон дат из раскрывающегося списка и нажав кнопку "Ввод!".


*Определитесь, кто Вы:
робот инопланетянин человек

Внимание! Время в таблицах - всемирное. Для получения местного времени необходимо прибавить поправку, которая равна 5 ч.

Смотрите также архив погоды в соседних городах и на ближайших метеорологических станциях:

Погода на Каадедхдху (Мальдивы) (130 км)
Погода на Кадхдху (Мальдивы) (287 км)
Погода в Мале (Мальдивы) (544 км)
Погода на Ханимааду (Мальдивы) (824 км)
Погода на Миникое (Лакшадвип, Индия) (999 км)
Погода в Галле (Шри Ланка) (1083 км)
Погода в Каньякумари (Тамилнад, Индия) (1087 км)
Погода в Тривандрам аэропорту (Керала, Индия) (1101 км)
Погода в Тривандраме (Керала, Индия) (1102 км)
Погода в Ратмалане (Шри Ланка) (1120 км)

Пояснения к столбцам:

Ветер - указаны скорость ветра в м/с - средняя за 10 мин, порывы в срок и между сроками (в фигурных скобках) и направление, откуда дует ветер: С - северный, СВ - северо-восточный, В - восточный, ЮВ - юго-восточный, Ю - южный, ЮЗ - юго-западный, З - западный, СЗ - северо-западный.
Видимость - горизонтальная дальность видимости в метрах или километрах. При видимости от 1 до 10 км при отсутствии осадков обычно наблюдается дымка, при ухудшении видимости до 1 км и менее - туман. В сухую погоду видимость может ухудшаться дымом, пылью или мглою.
Явления - указаны атмосферные явления, наблюдавшиеся в срок или в последний час перед сроком; фигурными скобками обозначены явления, наблюдавшиеся между сроками (за 1-3 часа до срока); квадратными скобками обозначены град или гололедные отложения с указанием их диаметра в мм.
Облачность - указаны через наклонную черту общая и нижняя облачность в баллах и высота нижней границы облаков в метрах; квадратными скобками обозначены формы облаков: Ci - перистые, Cs - перисто-слоистые, Cc - перисто-кучевые, Ac - высококучевые, As - высокослоистые, Sc - слоисто-кучевые, Ns - слоисто-дождевые, Cu - кучевые, Cb - кучево-дождевые. Подробнее классификацию облаков см. в Атласе облаков (PDF).
T - Температура воздуха - температура, измеренная на высоте 2 м над землей.
Td - Температура точки росы - температура, при понижении до которой содержащийся в воздухе водяной пар достигнет насыщения.
f - Относительная влажность воздуха - влажноcть воздуха, измеренная на высоте 2 м над землей.
Te - Эффективная температура - температура, которую ощущает одетый по сезону человек в тени. Характеристика душности погоды. При расчете учитывается влияние влажности воздуха и скорости ветра на теплоощущения человека.
Tes - Эффективная температура на солнце - температура, которую ощущает человек, с поправкой на солнечный нагрев. Характеристика знойности погоды. Зависит от высоты солнца над горизонтом, облачности и скорости ветра. Ночью, в пасмурную погоду, а также при ветре 12 м/с и более поправка равна нулю.
P - Атмосферное давление - приведенное к уровню моря атмосферное давление.
Po - Атмосферное давление - измеренное на уровне метеостанции атмосферное давление.
Tmin - Минимальная температура - минимум температуры воздуха на высоте 2 м над землей.
Tmax - Максимальная температура - максимум температуры воздуха на высоте 2 м над землей.
R - Количество осадков - Количество выпавших осадков за период времени, мм. При наведении курсора мыши на число - период времени, за который выпало указанное количество осадков.
R24 - Количество осадков - Количество выпавших осадков за 24 часа, мм.
S - Снежный покров - Высота снежного покрова, см. При наведении курсора мыши на число - состояние снежного покрова и степень покрытия местности в баллах.